Satellite-Ground Cal/Val Region Overpasses Predictions

Prediction of Satellite NPP Overpassing Cal/Val Region: PacNW

Region Location: (Latitude: 10.00, Longitude: 139.50) to (Latitude: 22.70, Longitude: 165.60).

Table of predicted overpasses for the next 14.0 days since TLE Epoch: 6/24/2015
Interval Starting Time Starting Location Ending Time Ending Location
1 06/24/2015 15:41:07 ( 22.69, 150.74) 06/24/2015 15:44:43 ( 10.01, 147.73)
2 06/25/2015 02:50:12 ( 10.05, 158.27) 06/25/2015 02:53:47 ( 22.67, 155.27)
3 06/25/2015 15:22:04 ( 22.69, 155.49) 06/25/2015 15:25:40 ( 10.01, 152.48)
4 06/26/2015 02:31:10 ( 10.05, 163.02) 06/26/2015 02:34:45 ( 22.67, 160.03)
5 06/26/2015 15:03:02 ( 22.70, 160.25) 06/26/2015 15:06:38 ( 10.02, 157.24)
6 06/27/2015 02:14:47 ( 19.39, 165.59) 06/27/2015 02:15:43 ( 22.67, 164.78)
7 06/27/2015 03:53:38 ( 10.05, 142.40) 06/27/2015 03:57:06 ( 22.27, 139.51)
8 06/27/2015 14:43:59 ( 22.70, 165.01) 06/27/2015 14:47:35 ( 10.02, 162.00)
9 06/27/2015 16:25:29 ( 22.69, 139.63) 06/27/2015 16:25:37 ( 22.22, 139.51)
10 06/28/2015 03:34:35 ( 10.05, 147.16) 06/28/2015 03:38:10 ( 22.68, 144.17)
11 06/28/2015 16:06:27 ( 22.69, 144.39) 06/28/2015 16:10:03 ( 10.01, 141.38)
12 06/29/2015 03:15:33 ( 10.05, 151.92) 06/29/2015 03:19:08 ( 22.68, 148.92)
13 06/29/2015 15:47:24 ( 22.69, 149.14) 06/29/2015 15:51:00 ( 10.01, 146.14)
14 06/30/2015 02:56:30 ( 10.05, 156.67) 06/30/2015 03:00:05 ( 22.68, 153.68)
15 06/30/2015 15:28:22 ( 22.69, 153.90) 06/30/2015 15:31:58 ( 10.01, 150.89)
16 07/01/2015 02:37:28 ( 10.05, 161.43) 07/01/2015 02:41:03 ( 22.68, 158.44)
17 07/01/2015 15:09:19 ( 22.69, 158.66) 07/01/2015 15:12:55 ( 10.01, 155.65)
18 07/02/2015 02:19:09 ( 12.64, 165.59) 07/02/2015 02:22:00 ( 22.68, 163.19)
19 07/02/2015 03:59:54 ( 10.00, 140.82) 07/02/2015 04:01:31 ( 15.70, 139.51)
20 07/02/2015 14:50:17 ( 22.69, 163.41) 07/02/2015 14:53:53 ( 10.01, 160.41)
21 07/03/2015 03:40:52 ( 10.01, 145.58) 07/03/2015 03:44:28 ( 22.69, 142.57)
22 07/03/2015 14:34:19 ( 11.89, 165.59) 07/03/2015 14:34:51 ( 10.01, 165.16)
23 07/03/2015 16:12:44 ( 22.68, 142.79) 07/03/2015 16:16:20 ( 10.00, 139.79)
24 07/04/2015 03:21:49 ( 10.01, 150.34) 07/04/2015 03:25:25 ( 22.69, 147.33)
25 07/04/2015 15:53:42 ( 22.68, 147.55) 07/04/2015 15:57:18 ( 10.00, 144.54)
26 07/05/2015 03:02:47 ( 10.01, 155.09) 07/05/2015 03:06:23 ( 22.70, 152.08)
27 07/05/2015 15:34:40 ( 22.68, 152.31) 07/05/2015 15:38:16 ( 10.00, 149.30)
28 07/06/2015 02:43:44 ( 10.01, 159.85) 07/06/2015 02:47:20 ( 22.70, 156.84)
29 07/06/2015 15:15:37 ( 22.68, 157.06) 07/06/2015 15:19:12 ( 10.06, 154.07)
30 07/07/2015 02:24:42 ( 10.02, 164.61) 07/07/2015 02:28:17 ( 22.65, 161.61)
31 07/07/2015 14:56:35 ( 22.67, 161.82) 07/07/2015 15:00:10 ( 10.05, 158.83)


NCC Satellite Cal/Val Overpasses Prediction Service
